Dewpoint
38 38 36 35 33 34 34 34 35 39 41 42 43 44 44 43 43 43 43 46 47 46 47 48 49 49 50
34 34 34 34 33 34 32 32 35 36 39 40 43 43 41 41 42 42 42 42 41 42 45 46 47 49 50
33 33 33 33 33 34 33 34 33 37 37 38 39 40 41 41 41 39 40 40 40 41 41 41 44 46 47
33 33 33 34 34 33 32 35 34 33 37 39 39 38 39 41 41 41 40 40 41 41 41 43 44 43 46
33 33 33 33 31 33 34 33 33 36 35 36 35 34 34 36 36 37 39 40 41 41 41 42 42 45 46
34 33 32 32 33 34 34 33 27 36 35 33 35 33 33 34 35 37 38 39 39 40 41 43 43 44 44
35 34 34 34 35 34 35 34 31 33 36 31 35 32 33 31 36 37 38 39 39 39 40 42 41 42 43
40 39 38 37 36 36 35 34 35 35 36 32 33 31 32 33 35 36 38 38 39 39 39 39 41 42 42
36 37 39 39 38 37 35 34 33 32 35 33 32 32 33 32 32 37 40 37 34 34 34 36 37 40 40
33 36 38 39 40 39 37 35 33 32 34 33 33 32 29 31 32 35 32 32 33 34 33 33 35 34 35
32 32 32 33 34 35 36 36 34 33 34 34 32 32 32 31 31 32 32 32 31 32 34 33 33 33 31
33 33 33 34 35 35 35 36 36 35 35 36 33 34 33 30 29 32 32 32 33 31 31 32 34 34 34
33 34 34 35 34 33 33 33 32 33 33 34 34 34 33 30 31 32 32 33 33 33 32 31 30 30 30
32 32 32 32 32 32 31 31 31 30 31 32 33 33 32 31 32 31 31 30 33 33 32 31 31 30 30
30 29 29 30 30 31 30 32 30 28 28 30 32 32 32 31 30 30 29 29 30 31 31 31 32 30 29
29 29 29 30 29 29 30 30 29 29 28 29 29 30 29 31 32 29 29 28 29 30 29 27 28 30 28
29 30 30 30 28 28 27 28 28 28 29 30 29 27 26 23 26 29 29 29 28 28 28 28 27 28 28
Lifted_Index
17 17 17 17 17 17 17 17 17 17 17 16 15 15 15 15 15 15 15 14 14 14 13 13 12 11 11
17 17 18 18 18 18 18 18 18 18 17 17 16 15 15 16 16 15 15 15 15 15 14 14 13 12 11
17 17 18 19 19 19 19 19 19 18 18 18 17 16 16 16 16 16 16 16 16 15 15 15 14 14 13
16 16 17 18 19 19 19 19 19 19 18 18 17 17 17 17 17 17 17 16 16 16 16 15 15 14 14
14 15 15 16 17 18 18 18 18 19 18 18 18 18 18 17 17 17 17 17 16 16 16 15 15 14 14
14 14 14 16 17 17 17 17 17 18 18 18 18 18 18 18 18 17 17 17 16 16 16 15 15 15 14
13 14 14 15 16 16 16 16 16 17 17 17 17 17 17 18 18 17 17 16 16 16 15 15 15 15 14
13 13 14 15 15 16 16 16 16 16 16 16 16 16 17 17 17 17 16 15 15 15 15 15 15 14 14
13 13 13 13 14 14 15 15 15 16 16 16 16 16 16 16 16 16 15 15 15 15 15 15 15 14 14
13 13 12 12 12 12 13 13 14 14 15 15 15 15 15 15 15 14 14 15 15 15 15 15 15 15 15
11 11 11 11 11 11 11 12 12 12 13 13 13 14 13 13 13 13 13 14 14 14 14 14 14 14 15
10 10 10 10 10 11 11 11 11 11 11 11 12 12 12 12 12 12 12 12 12 13 13 13 13 13 14
9 9 9 9 9 10 10 10 10 10 10 11 11 11 11 11 11 11 11 11 11 11 12 12 12 13 13
8 8 9 9 9 10 10 10 10 10 10 10 10 10 10 10 11 11 11 11 11 11 11 11 12 12 13
8 8 9 9 9 9 9 9 9 9 9 9 9 10 10 10 10 10 10 10 10 10 10 10 11 11 12
8 8 8 8 8 8 8 8 8 8 9 9 9 9 9 9 9 10 10 10 10 9 9 9 10 10 10
7 8 8 8 8 8 8 8 8 8 9 9 9 9 9 9 9 9 9 9 9 9 9 9 9 9 9